Location: Mountain View
(37.3861°N, 122.0839°W)
Time: 14:53:33

N. Korean satellite - Visible Passes

Search period start: 24 March 2018 00:00
Search period end: 03 April 2018 00:00
Orbit: 460 x 512 km, 97.2° (Epoch: 23 March)

Date Brightness Start Highest point End Pass type
(mag) Time Alt. Az. Time Alt. Az. Time Alt. Az.
24 Mar 10.1 20:07:43 10° WSW 20:09:26 13° W 20:11:09 10° WNW visible
28 Mar 10.1 20:05:40 10° WSW 20:07:34 13° W 20:09:28 10° WNW visible
01 Apr 10.0 20:03:34 10° SW 20:05:37 14° W 20:07:42 10° WNW visible
